2023/02/05 00:00:00, 5.0, 0.3
2023/02/05 00:10:00, 5.0, 0.3
2023/02/05 00:20:00, 4.9, 0.0
2023/02/05 00:30:00, 4.8, 0.2
2023/02/05 00:40:00, 4.9, 0.1
2023/02/05 00:50:00, 4.8, 0.4
2023/02/05 01:00:00, 4.9, 0.3
2023/02/05 01:10:00, 4.8, 0.0
2023/02/05 01:20:00, 4.6,-0.7
2023/02/05 01:30:00, 4.4,-0.6
2023/02/05 01:40:00, 4.5,-0.2
2023/02/05 01:50:00, 4.6,-0.3
2023/02/05 02:00:00, 4.7, 0.0
2023/02/05 02:10:00, 4.7, 0.3
2023/02/05 02:20:00, 4.7, 0.2
2023/02/05 02:30:00, 4.7, 0.3
2023/02/05 02:40:00, 4.6, 0.1
2023/02/05 02:50:00, 4.6,-0.4
2023/02/05 03:00:00, 4.6, 0.0
2023/02/05 03:10:00, 4.5,-0.2
2023/02/05 03:20:00, 4.4,-0.8
2023/02/05 03:30:00, 4.3,-1.1
2023/02/05 03:40:00, 4.3,-0.5
2023/02/05 03:50:00, 4.3,-0.7
2023/02/05 04:00:00, 4.4,-0.6
2023/02/05 04:10:00, 4.3,-0.4
2023/02/05 04:20:00, 4.4,-0.2
2023/02/05 04:30:00, 4.4,-0.3
2023/02/05 04:40:00, 4.3,-0.3
2023/02/05 04:50:00, 4.3,-0.4
2023/02/05 05:00:00, 4.3,-0.7
2023/02/05 05:10:00, 4.2,-1.4
2023/02/05 05:20:00, 4.2,-1.4
2023/02/05 05:30:00, 4.2,-1.8
2023/02/05 05:40:00, 4.2,-1.2
2023/02/05 05:50:00, 4.2,-1.1
2023/02/05 06:00:00, 4.2,-1.0
2023/02/05 06:10:00, 4.2,-1.4
2023/02/05 06:20:00, 4.1,-1.2
2023/02/05 06:30:00, 4.2,-1.0
2023/02/05 06:40:00, 4.2,-0.9
2023/02/05 06:50:00, 4.1,-1.3
2023/02/05 07:00:00, 4.1,-0.8
2023/02/05 07:10:00, 4.2,-0.4
2023/02/05 07:20:00, 4.2, 0.0
2023/02/05 07:30:00, 4.1, 0.0
2023/02/05 07:40:00, 4.1, 0.1
2023/02/05 07:50:00, 4.2, 0.1
2023/02/05 08:00:00, 4.3, 0.7
2023/02/05 08:10:00, 4.7, 1.6
2023/02/05 08:20:00, 5.2, 4.5
2023/02/05 08:30:00, 4.9, 7.9
2023/02/05 08:40:00, 4.5, 8.1
2023/02/05 08:50:00, 5.2,10.0
2023/02/05 09:00:00, 5.4,10.3
2023/02/05 09:10:00, 5.1,10.3
2023/02/05 09:20:00, 4.7, 8.6
2023/02/05 09:30:00, 4.6, 6.9
2023/02/05 09:40:00, 4.7, 6.7
2023/02/05 09:50:00, 4.5, 7.0
2023/02/05 10:00:00, 4.5,10.0
2023/02/05 10:10:00, 4.8,16.1
2023/02/05 10:20:00, 4.8,14.8
2023/02/05 10:30:00, 4.9,15.3
2023/02/05 10:40:00, 4.3,16.3
2023/02/05 10:50:00, 4.3,14.3
2023/02/05 11:00:00, 4.1,16.8
2023/02/05 11:10:00, 4.1,15.2
2023/02/05 11:20:00, 4.2,17.1
2023/02/05 11:30:00, 4.2,18.3
2023/02/05 11:40:00, 4.1,16.3
2023/02/05 11:50:00, 4.1,17.2
2023/02/05 12:00:00, 4.1,19.1
2023/02/05 12:10:00, 4.0,17.7
2023/02/05 12:20:00, 3.9,18.1
2023/02/05 12:30:00, 3.9,18.2
2023/02/05 12:40:00, 3.6,16.9
2023/02/05 12:50:00, 3.3,17.3
2023/02/05 13:00:00, 3.1,16.8
2023/02/05 13:10:00, 3.2,17.2
2023/02/05 13:20:00, 3.0,16.8
2023/02/05 13:30:00, 3.0,17.3
2023/02/05 13:40:00, 2.8,16.5
2023/02/05 13:50:00, 2.7,16.7
2023/02/05 14:00:00, 2.5,14.4
2023/02/05 14:10:00, 2.5,15.0
2023/02/05 14:20:00, 2.2,15.8
2023/02/05 14:30:00, 2.0,15.4
2023/02/05 14:40:00, 2.0,14.7
2023/02/05 14:50:00, 2.0,14.0
2023/02/05 15:00:00, 2.0,15.2
2023/02/05 15:10:00, 1.8,13.7
2023/02/05 15:20:00, 1.8,14.8
2023/02/05 15:30:00, 1.8,14.1
2023/02/05 15:40:00, 1.8,14.3
2023/02/05 15:50:00, 1.8,14.5
2023/02/05 16:00:00, 1.7,13.3
2023/02/05 16:10:00, 1.6,12.2
2023/02/05 16:20:00, 1.5, 9.6
2023/02/05 16:30:00, 1.6,11.5
2023/02/05 16:40:00, 1.5,11.8
2023/02/05 16:50:00, 1.4,11.8
2023/02/05 17:00:00, 1.5, 8.4
2023/02/05 17:10:00, 1.4, 5.5
2023/02/05 17:20:00, 1.4, 5.0
2023/02/05 17:30:00, 1.5, 3.8
2023/02/05 17:40:00, 1.6, 2.9
2023/02/05 17:50:00, 1.7, 2.0
2023/02/05 18:00:00, 1.6, 1.8
2023/02/05 18:10:00, 1.5, 1.6
2023/02/05 18:20:00, 1.5, 0.9
2023/02/05 18:30:00, 1.7, 0.5
2023/02/05 18:40:00, 1.7, 0.0
2023/02/05 18:50:00, 1.7, 0.1
2023/02/05 19:00:00, 1.7,-0.3
2023/02/05 19:10:00, 1.6, 0.5
2023/02/05 19:20:00, 1.4, 0.4
2023/02/05 19:30:00, 1.4, 0.3
2023/02/05 19:40:00, 1.4, 0.3
2023/02/05 19:50:00, 1.5,-0.1
2023/02/05 20:00:00, 1.4,-0.5
2023/02/05 20:10:00, 1.4,-0.7
2023/02/05 20:20:00, 1.6,-0.7
2023/02/05 20:30:00, 1.6,-1.0
2023/02/05 20:40:00, 1.5,-0.9
2023/02/05 20:50:00, 1.4,-1.0
2023/02/05 21:00:00, 1.4,-1.1
2023/02/05 21:10:00, 1.5,-1.3
2023/02/05 21:20:00, 1.5,-1.2
2023/02/05 21:30:00, 1.5,-1.7
2023/02/05 21:40:00, 1.3,-1.4
2023/02/05 21:50:00, 1.4,-1.9
2023/02/05 22:00:00, 1.4,-1.7
2023/02/05 22:10:00, 1.4,-1.6
2023/02/05 22:20:00, 1.5,-2.0
2023/02/05 22:30:00, 1.5,-1.8
2023/02/05 22:40:00, 1.5,-1.5
2023/02/05 22:50:00, 1.4,-1.8
2023/02/05 23:00:00, 1.4,-1.8
2023/02/05 23:10:00, 1.4,-1.7
2023/02/05 23:20:00, 1.4,-2.3
2023/02/05 23:30:00, 1.4,-2.4
2023/02/05 23:40:00, 1.4,-2.5
2023/02/05 23:50:00, 1.4,-2.5
